WXM80 ListenWXM80 Stop

You find our weather info also at:

UK Metoffice

WeatherCloud

Weather Underground

Northeastern Weather Network

AWEKAS

Citizen Weather Observer Program (CWOP)

HAMweather, WeatherForYou, PWS Weather


Weather Underground History page Text

Daily Summary for September 30, 2016 Units:  English    Metric   Both
« Previous Day
Next Day »
Daily Weekly Monthly Yearly Custom
  High: Low: Average:
Temperature: 63.1 °F 58.8 °F 60.4 °F
Dew Point: 59.4 °F 55.2 °F 57.4 °F
Humidity: 96 % 84 % 90 %
Wind Speed: 15.3 mph 5.0 mph 10.5 mph
Wind Gust: 26.5 mph - -
Wind:- - ENE
Pressure: 30.34 in 30.21 in -
Precipitation: 0.15 in    
Historical Graphs
 
 
Tabular Data for September 30, 2016
Time Temperature Dew Point Pressure Wind Wind Speed Wind Gust Humidity Rainfall Rate (Hourly)
00:00 60.2 °F 55.3 °F 30.34 in ENE 12.0 mph 13.8 mph 84 % 0.00 in
00:05 60.3 °F 55.8 °F 30.34 in ENE 11.8 mph 13.8 mph 85 % 0.00 in
00:10 60.2 °F 55.7 °F 30.34 in ENE 8.6 mph 14.0 mph 85 % 0.00 in
00:16 60.2 °F 56.0 °F 30.34 in ENE 15.0 mph 22.0 mph 86 % 0.00 in
00:20 60.2 °F 56.0 °F 30.34 in ENE 7.6 mph 11.5 mph 86 % 0.00 in
00:26 60.2 °F 56.0 °F 30.34 in ENE 10.0 mph 15.0 mph 86 % 0.00 in
00:31 60.2 °F 55.7 °F 30.34 in ENE 9.0 mph 17.0 mph 85 % 0.00 in
00:35 60.2 °F 56.0 °F 30.33 in ENE 8.7 mph 10.4 mph 86 % 0.00 in
00:41 60.2 °F 56.0 °F 30.34 in ENE 10.0 mph 17.0 mph 86 % 0.00 in
00:46 60.1 °F 55.9 °F 30.33 in ENE 9.0 mph 20.0 mph 86 % 0.00 in
00:50 59.8 °F 56.2 °F 30.33 in ENE 9.3 mph 13.0 mph 88 % 0.00 in
00:56 59.8 °F 56.2 °F 30.33 in ENE 9.0 mph 16.0 mph 88 % 0.00 in
01:01 59.9 °F 56.3 °F 30.33 in ENE 8.1 mph 17.3 mph 88 % 0.00 in
01:06 60.0 °F 56.4 °F 30.33 in ENE 11.1 mph 18.4 mph 88 % 0.00 in
01:16 60.2 °F 56.3 °F 30.33 in ENE 11.0 mph 16.1 mph 87 % 0.00 in
01:21 60.4 °F 56.2 °F 30.33 in ENE 13.0 mph 19.6 mph 86 % 0.00 in
01:26 60.4 °F 56.5 °F 30.32 in ENE 12.1 mph 16.1 mph 87 % 0.00 in
01:31 60.4 °F 56.5 °F 30.33 in ENE 7.7 mph 11.5 mph 87 % 0.00 in
01:36 60.4 °F 56.2 °F 30.33 in East 8.5 mph 13.8 mph 86 % 0.00 in
01:41 60.5 °F 56.6 °F 30.32 in ENE 10.2 mph 17.3 mph 87 % 0.00 in
01:46 60.5 °F 56.3 °F 30.32 in East 12.6 mph 23.0 mph 86 % 0.00 in
01:52 60.5 °F 56.6 °F 30.32 in ENE 11.1 mph 23.0 mph 87 % 0.00 in
01:57 60.4 °F 56.8 °F 30.32 in ENE 11.2 mph 18.4 mph 88 % 0.00 in
02:02 60.3 °F 56.7 °F 30.32 in ENE 10.6 mph 18.4 mph 88 % 0.00 in
02:07 60.2 °F 56.6 °F 30.32 in ENE 7.3 mph 12.7 mph 88 % 0.00 in
02:12 60.1 °F 56.5 °F 30.31 in ENE 9.4 mph 22.0 mph 88 % 0.00 in
02:17 60.1 °F 56.2 °F 30.31 in ENE 7.7 mph 12.7 mph 87 % 0.00 in
02:22 60.2 °F 56.6 °F 30.31 in ENE 10.3 mph 15.0 mph 88 % 0.00 in
02:27 60.3 °F 56.7 °F 30.31 in ENE 11.6 mph 19.6 mph 88 % 0.00 in
02:32 60.3 °F 56.4 °F 30.31 in ENE 9.5 mph 16.1 mph 87 % 0.00 in
02:37 60.4 °F 56.5 °F 30.30 in ENE 11.5 mph 18.4 mph 87 % 0.00 in
02:43 60.4 °F 56.5 °F 30.30 in ENE 11.1 mph 17.3 mph 87 % 0.00 in
02:48 60.5 °F 56.6 °F 30.30 in East 8.6 mph 13.0 mph 87 % 0.00 in
02:53 60.5 °F 56.6 °F 30.30 in NE 11.3 mph 18.4 mph 87 % 0.00 in
02:58 60.5 °F 56.3 °F 30.30 in ENE 7.9 mph 15.0 mph 86 % 0.00 in
03:03 60.6 °F 56.4 °F 30.31 in ENE 11.8 mph 16.1 mph 86 % 0.00 in
03:08 60.6 °F 56.4 °F 30.30 in NE 8.8 mph 12.0 mph 86 % 0.00 in
03:13 60.7 °F 56.5 °F 30.30 in East 7.7 mph 11.0 mph 86 % 0.00 in
03:18 60.7 °F 56.5 °F 30.30 in East 10.9 mph 21.9 mph 86 % 0.00 in
03:23 60.7 °F 56.2 °F 30.30 in ESE 11.5 mph 16.1 mph 85 % 0.00 in
03:28 60.6 °F 56.1 °F 30.30 in East 12.9 mph 17.3 mph 85 % 0.00 in
03:34 60.6 °F 56.1 °F 30.30 in ENE 11.4 mph 16.1 mph 85 % 0.00 in
03:39 60.7 °F 56.2 °F 30.30 in ENE 8.5 mph 15.0 mph 85 % 0.00 in
03:44 60.6 °F 56.1 °F 30.30 in ENE 10.7 mph 18.4 mph 85 % 0.00 in
03:49 60.7 °F 56.2 °F 30.30 in ENE 10.4 mph 15.0 mph 85 % 0.00 in
03:54 60.7 °F 56.5 °F 30.30 in ENE 13.2 mph 26.5 mph 86 % 0.00 in
04:04 60.6 °F 56.4 °F 30.30 in NE 10.3 mph 13.0 mph 86 % 0.00 in
04:09 60.6 °F 56.1 °F 30.30 in ENE 9.9 mph 17.3 mph 85 % 0.00 in
04:14 60.6 °F 56.1 °F 30.29 in ENE 7.1 mph 13.8 mph 85 % 0.00 in
04:19 60.5 °F 56.0 °F 30.30 in ENE 10.9 mph 12.7 mph 85 % 0.00 in
04:25 60.5 °F 56.0 °F 30.29 in NE 15.3 mph 19.0 mph 85 % 0.00 in
04:30 60.4 °F 55.9 °F 30.29 in ENE 13.0 mph 26.5 mph 85 % 0.00 in
04:35 60.4 °F 55.5 °F 30.29 in East 8.9 mph 19.0 mph 84 % 0.00 in
04:45 60.4 °F 55.9 °F 30.29 in ENE 9.2 mph 12.0 mph 85 % 0.00 in
04:50 60.3 °F 55.8 °F 30.29 in East 8.9 mph 17.3 mph 85 % 0.00 in
04:55 60.4 °F 55.9 °F 30.30 in East 9.2 mph 18.4 mph 85 % 0.00 in
05:00 60.3 °F 55.8 °F 30.29 in ENE 12.1 mph 16.1 mph 85 % 0.00 in
05:05 60.3 °F 55.4 °F 30.29 in ENE 13.2 mph 19.6 mph 84 % 0.00 in
05:10 60.2 °F 55.7 °F 30.30 in ENE 9.2 mph 11.5 mph 85 % 0.00 in
05:15 60.2 °F 55.7 °F 30.30 in ENE 9.0 mph 16.0 mph 85 % 0.00 in
05:20 60.2 °F 55.7 °F 30.29 in ENE 12.0 mph 18.0 mph 85 % 0.00 in
05:25 60.2 °F 55.7 °F 30.29 in ENE 12.0 mph 19.6 mph 85 % 0.00 in
05:30 60.2 °F 55.7 °F 30.29 in ENE 13.0 mph 20.0 mph 85 % 0.00 in
05:35 60.2 °F 55.3 °F 30.29 in ENE 9.0 mph 18.0 mph 84 % 0.00 in
05:40 60.2 °F 55.3 °F 30.29 in NE 13.3 mph 19.0 mph 84 % 0.00 in
05:45 60.1 °F 55.3 °F 30.29 in ENE 13.0 mph 20.0 mph 84 % 0.00 in
05:50 60.2 °F 55.3 °F 30.29 in ENE 13.0 mph 22.0 mph 84 % 0.00 in
05:55 60.2 °F 55.7 °F 30.29 in ENE 10.0 mph 16.0 mph 85 % 0.00 in
06:01 60.2 °F 55.7 °F 30.29 in East 12.0 mph 17.3 mph 85 % 0.00 in
06:06 60.2 °F 55.7 °F 30.29 in East 11.5 mph 18.4 mph 85 % 0.00 in
06:11 60.1 °F 55.6 °F 30.29 in ENE 12.4 mph 17.3 mph 85 % 0.00 in
06:16 60.1 °F 55.6 °F 30.29 in NE 11.7 mph 18.4 mph 85 % 0.00 in
06:21 60.1 °F 55.6 °F 30.29 in ENE 9.3 mph 17.3 mph 85 % 0.00 in
06:26 60.1 °F 55.6 °F 30.29 in ENE 12.1 mph 17.3 mph 85 % 0.00 in
06:31 60.1 °F 55.6 °F 30.29 in East 9.5 mph 15.0 mph 85 % 0.00 in
06:36 60.0 °F 55.5 °F 30.29 in ENE 7.3 mph 13.8 mph 85 % 0.00 in
06:41 60.1 °F 55.2 °F 30.29 in East 12.3 mph 20.7 mph 84 % 0.00 in
06:46 60.1 °F 55.6 °F 30.29 in ENE 13.1 mph 20.7 mph 85 % 0.00 in
06:52 60.2 °F 55.7 °F 30.29 in ENE 10.4 mph 15.0 mph 85 % 0.00 in
06:57 60.2 °F 56.0 °F 30.29 in ENE 9.8 mph 16.1 mph 86 % 0.00 in
07:02 60.3 °F 55.8 °F 30.29 in ENE 9.7 mph 18.4 mph 85 % 0.00 in
07:07 60.3 °F 55.8 °F 30.29 in ENE 8.6 mph 13.8 mph 85 % 0.00 in
07:12 60.4 °F 55.9 °F 30.29 in ENE 12.9 mph 18.4 mph 85 % 0.00 in
07:17 60.4 °F 55.5 °F 30.29 in ENE 10.9 mph 20.0 mph 84 % 0.00 in
07:22 60.4 °F 55.9 °F 30.29 in ENE 9.3 mph 16.1 mph 85 % 0.00 in
07:27 60.5 °F 55.6 °F 30.29 in ENE 8.7 mph 17.3 mph 84 % 0.00 in
07:32 60.6 °F 56.1 °F 30.29 in ENE 14.0 mph 17.3 mph 85 % 0.00 in
07:38 60.6 °F 56.1 °F 30.29 in NE 12.6 mph 20.0 mph 85 % 0.00 in
07:43 60.7 °F 56.2 °F 30.29 in ENE 9.0 mph 12.7 mph 85 % 0.00 in
07:48 60.8 °F 56.3 °F 30.28 in ENE 11.9 mph 18.4 mph 85 % 0.00 in
07:58 60.7 °F 56.2 °F 30.29 in ENE 11.2 mph 18.4 mph 85 % 0.00 in
08:03 60.7 °F 56.2 °F 30.29 in East 10.4 mph 18.4 mph 85 % 0.00 in
08:08 60.7 °F 55.8 °F 30.28 in East 13.5 mph 17.3 mph 84 % 0.00 in
08:13 60.7 °F 56.2 °F 30.28 in East 11.4 mph 20.7 mph 85 % 0.00 in
08:18 60.8 °F 56.3 °F 30.29 in East 10.9 mph 18.0 mph 85 % 0.00 in
08:23 60.8 °F 56.3 °F 30.29 in ENE 12.3 mph 19.6 mph 85 % 0.00 in
08:29 60.9 °F 56.4 °F 30.29 in ENE 11.8 mph 19.6 mph 85 % 0.00 in
08:34 60.9 °F 56.4 °F 30.29 in NE 13.5 mph 19.6 mph 85 % 0.00 in
08:39 60.9 °F 56.4 °F 30.29 in ENE 11.0 mph 17.3 mph 85 % 0.00 in
08:44 61.0 °F 56.5 °F 30.29 in ENE 12.9 mph 18.4 mph 85 % 0.00 in
08:49 61.0 °F 56.8 °F 30.29 in ENE 12.6 mph 23.0 mph 86 % 0.00 in
08:54 61.1 °F 56.6 °F 30.28 in ENE 12.0 mph 16.1 mph 85 % 0.00 in
08:59 61.1 °F 56.6 °F 30.29 in ENE 11.0 mph 17.3 mph 85 % 0.00 in
09:04 61.1 °F 56.6 °F 30.29 in ENE 12.5 mph 19.6 mph 85 % 0.00 in
09:09 61.2 °F 56.7 °F 30.29 in ENE 9.9 mph 13.8 mph 85 % 0.00 in
09:14 61.2 °F 57.0 °F 30.29 in ENE 7.7 mph 12.7 mph 86 % 0.00 in
09:20 61.3 °F 56.8 °F 30.29 in East 10.0 mph 17.3 mph 85 % 0.00 in
09:25 61.3 °F 57.1 °F 30.29 in East 11.3 mph 16.1 mph 86 % 0.00 in
09:30 61.4 °F 56.8 °F 30.29 in ENE 10.5 mph 18.4 mph 85 % 0.00 in
09:35 61.5 °F 57.6 °F 30.29 in ENE 8.5 mph 13.8 mph 87 % 0.00 in
09:40 61.5 °F 56.9 °F 30.29 in ENE 12.8 mph 19.6 mph 85 % 0.00 in
09:45 61.6 °F 57.4 °F 30.29 in ENE 11.3 mph 15.0 mph 86 % 0.00 in
09:50 61.7 °F 57.5 °F 30.29 in East 9.0 mph 15.0 mph 86 % 0.00 in
09:55 61.7 °F 57.5 °F 30.29 in ENE 11.1 mph 19.6 mph 86 % 0.00 in
10:00 61.8 °F 57.6 °F 30.29 in ENE 8.3 mph 12.7 mph 86 % 0.00 in
10:06 61.8 °F 57.9 °F 30.29 in ENE 8.0 mph 20.0 mph 87 % 0.00 in
10:11 61.6 °F 58.0 °F 30.29 in East 11.8 mph 16.1 mph 88 % 0.00 in
10:16 61.4 °F 58.1 °F 30.29 in ENE 9.0 mph 21.0 mph 89 % 0.00 in
10:21 61.2 °F 58.2 °F 30.29 in ENE 10.1 mph 13.0 mph 90 % 0.00 in
10:26 61.2 °F 57.9 °F 30.29 in ENE 7.4 mph 11.5 mph 89 % 0.00 in
10:31 61.2 °F 57.9 °F 30.29 in ENE 10.3 mph 18.4 mph 89 % 0.00 in
10:36 61.3 °F 58.0 °F 30.29 in ENE 9.4 mph 16.0 mph 89 % 0.00 in
10:41 61.4 °F 57.8 °F 30.29 in ENE 9.6 mph 17.3 mph 88 % 0.00 in
10:46 61.6 °F 58.3 °F 30.29 in ENE 7.9 mph 9.2 mph 89 % 0.00 in
10:51 61.8 °F 58.2 °F 30.29 in East 9.2 mph 15.0 mph 88 % 0.00 in
10:56 62.0 °F 58.7 °F 30.29 in East 8.7 mph 13.8 mph 89 % 0.00 in
11:01 62.1 °F 58.5 °F 30.29 in ENE 10.3 mph 18.4 mph 88 % 0.00 in
11:06 62.2 °F 58.3 °F 30.29 in ENE 12.0 mph 16.1 mph 87 % 0.00 in
11:11 62.5 °F 58.9 °F 30.29 in ENE 7.5 mph 10.4 mph 88 % 0.00 in
11:16 62.5 °F 58.6 °F 30.29 in ENE 10.0 mph 15.0 mph 87 % 0.00 in
11:21 62.6 °F 58.4 °F 30.29 in ENE 10.0 mph 12.0 mph 86 % 0.00 in
11:27 62.8 °F 58.5 °F 30.29 in ENE 10.6 mph 18.4 mph 86 % 0.00 in
11:32 63.0 °F 58.7 °F 30.28 in ENE 9.2 mph 12.7 mph 86 % 0.00 in
11:42 63.1 °F 58.5 °F 30.28 in ENE 11.6 mph 15.0 mph 85 % 0.00 in
11:47 63.0 °F 58.7 °F 30.27 in East 12.6 mph 17.3 mph 86 % 0.00 in
11:52 62.8 °F 58.5 °F 30.27 in ENE 9.1 mph 13.8 mph 86 % 0.00 in
12:02 62.4 °F 58.8 °F 30.27 in ENE 9.6 mph 12.7 mph 88 % 0.01 in
12:07 62.0 °F 59.0 °F 30.27 in ENE 9.6 mph 10.0 mph 90 % 0.02 in
12:12 61.7 °F 59.0 °F 30.27 in ENE 9.0 mph 17.3 mph 91 % 0.03 in
12:17 61.5 °F 58.8 °F 30.27 in ENE 9.2 mph 11.0 mph 91 % 0.03 in
12:23 61.4 °F 58.7 °F 30.27 in East 8.2 mph 15.0 mph 91 % 0.03 in
12:28 61.4 °F 59.1 °F 30.27 in East 7.8 mph 15.0 mph 92 % 0.04 in
12:33 61.4 °F 59.1 °F 30.27 in East 7.9 mph 11.5 mph 92 % 0.05 in
12:38 61.3 °F 59.3 °F 30.27 in ENE 7.9 mph 10.4 mph 93 % 0.05 in
12:43 61.2 °F 59.2 °F 30.27 in East 7.7 mph 12.7 mph 93 % 0.06 in
12:48 61.2 °F 59.2 °F 30.27 in ENE 8.2 mph 10.4 mph 93 % 0.06 in
12:53 61.2 °F 59.2 °F 30.27 in ENE 8.1 mph 13.0 mph 93 % 0.06 in
12:58 61.3 °F 59.3 °F 30.26 in ENE 13.3 mph 19.6 mph 93 % 0.06 in
13:03 61.2 °F 59.2 °F 30.27 in ENE 11.9 mph 13.8 mph 93 % 0.06 in
13:08 61.1 °F 59.1 °F 30.26 in ENE 10.5 mph 18.4 mph 93 % 0.05 in
13:14 61.1 °F 59.1 °F 30.26 in ENE 11.7 mph 17.3 mph 93 % 0.05 in
13:19 60.9 °F 58.9 °F 30.26 in ENE 10.7 mph 20.7 mph 93 % 0.06 in
13:24 60.8 °F 58.8 °F 30.26 in ENE 10.7 mph 17.3 mph 93 % 0.06 in
13:29 60.8 °F 58.8 °F 30.26 in ENE 10.8 mph 17.3 mph 93 % 0.05 in
13:34 60.8 °F 59.1 °F 30.25 in NE 10.9 mph 17.3 mph 94 % 0.04 in
13:39 60.8 °F 59.1 °F 30.25 in East 13.5 mph 17.0 mph 94 % 0.03 in
13:44 60.8 °F 58.8 °F 30.25 in East 12.8 mph 16.1 mph 93 % 0.03 in
13:49 60.8 °F 59.1 °F 30.25 in East 13.6 mph 20.7 mph 94 % 0.04 in
13:54 60.7 °F 58.7 °F 30.25 in NE 12.6 mph 17.3 mph 93 % 0.04 in
13:59 60.8 °F 58.8 °F 30.25 in ENE 11.1 mph 20.7 mph 93 % 0.04 in
14:05 60.9 °F 58.9 °F 30.25 in East 12.0 mph 19.6 mph 93 % 0.03 in
14:10 60.9 °F 58.9 °F 30.25 in ENE 10.8 mph 18.4 mph 93 % 0.03 in
14:15 60.8 °F 58.8 °F 30.24 in ENE 7.8 mph 13.8 mph 93 % 0.02 in
14:20 61.1 °F 59.4 °F 30.24 in ENE 7.7 mph 19.6 mph 94 % 0.01 in
14:25 61.0 °F 59.3 °F 30.24 in East 12.0 mph 18.4 mph 94 % 0.01 in
14:30 61.0 °F 59.3 °F 30.24 in East 14.0 mph 19.6 mph 94 % 0.01 in
14:35 60.9 °F 58.9 °F 30.24 in NE 12.5 mph 16.1 mph 93 % 0.01 in
14:40 60.7 °F 58.7 °F 30.24 in East 11.1 mph 17.3 mph 93 % 0.01 in
14:45 60.8 °F 58.8 °F 30.24 in East 11.6 mph 16.1 mph 93 % 0.01 in
14:50 60.8 °F 58.5 °F 30.23 in ENE 7.4 mph 12.7 mph 92 % 0.00 in
14:56 60.8 °F 58.5 °F 30.23 in ENE 9.0 mph 15.0 mph 92 % 0.00 in
15:01 60.8 °F 58.5 °F 30.23 in East 14.7 mph 19.6 mph 92 % 0.01 in
15:06 60.6 °F 58.3 °F 30.23 in East 9.2 mph 15.0 mph 92 % 0.01 in
15:11 60.5 °F 58.5 °F 30.23 in East 10.0 mph 23.0 mph 93 % 0.01 in
15:16 60.5 °F 58.5 °F 30.23 in ENE 9.9 mph 20.7 mph 93 % 0.01 in
15:21 60.6 °F 58.6 °F 30.23 in East 11.0 mph 15.0 mph 93 % 0.01 in
15:26 60.6 °F 58.3 °F 30.23 in ENE 8.0 mph 13.8 mph 92 % 0.01 in
15:31 60.6 °F 58.3 °F 30.23 in ENE 10.6 mph 13.8 mph 92 % 0.01 in
15:36 60.7 °F 58.4 °F 30.23 in East 11.1 mph 17.3 mph 92 % 0.01 in
15:41 60.5 °F 58.2 °F 30.23 in East 12.6 mph 16.1 mph 92 % 0.01 in
15:47 60.5 °F 58.5 °F 30.23 in ENE 14.2 mph 16.1 mph 93 % 0.01 in
15:52 60.4 °F 58.4 °F 30.23 in ENE 11.5 mph 23.0 mph 93 % 0.02 in
15:57 60.3 °F 58.3 °F 30.23 in East 8.9 mph 11.5 mph 93 % 0.01 in
16:02 60.3 °F 58.6 °F 30.22 in East 11.1 mph 21.9 mph 94 % 0.01 in
16:07 60.2 °F 58.5 °F 30.23 in NE 10.3 mph 19.0 mph 94 % 0.01 in
16:12 60.2 °F 58.5 °F 30.22 in East 11.8 mph 15.0 mph 94 % 0.01 in
16:17 60.2 °F 58.5 °F 30.22 in ENE 13.6 mph 17.3 mph 94 % 0.01 in
16:22 60.2 °F 58.5 °F 30.23 in ENE 10.9 mph 18.0 mph 94 % 0.01 in
16:27 60.1 °F 58.4 °F 30.22 in ENE 14.5 mph 23.0 mph 94 % 0.01 in
16:32 60.0 °F 58.3 °F 30.22 in ENE 8.1 mph 12.7 mph 94 % 0.02 in
16:37 60.0 °F 58.3 °F 30.22 in ENE 12.2 mph 17.3 mph 94 % 0.02 in
16:43 60.0 °F 58.3 °F 30.22 in ENE 14.2 mph 18.4 mph 94 % 0.02 in
16:48 60.0 °F 58.3 °F 30.22 in ENE 10.6 mph 12.7 mph 94 % 0.02 in
16:53 60.1 °F 58.4 °F 30.22 in ENE 9.0 mph 16.1 mph 94 % 0.01 in
16:58 60.1 °F 58.4 °F 30.22 in ENE 13.3 mph 19.6 mph 94 % 0.01 in
17:03 60.2 °F 58.5 °F 30.22 in East 10.4 mph 17.3 mph 94 % 0.01 in
17:08 60.3 °F 58.3 °F 30.22 in East 12.0 mph 23.0 mph 93 % 0.01 in
17:13 60.4 °F 58.4 °F 30.22 in ENE 8.0 mph 14.0 mph 93 % 0.01 in
17:23 60.5 °F 58.5 °F 30.22 in ENE 9.2 mph 20.7 mph 93 % 0.01 in
17:28 60.6 °F 58.6 °F 30.22 in ENE 11.3 mph 18.4 mph 93 % 0.00 in
17:34 60.6 °F 58.6 °F 30.21 in East 9.5 mph 11.5 mph 93 % 0.00 in
17:39 60.6 °F 58.6 °F 30.22 in ENE 7.8 mph 9.2 mph 93 % 0.00 in
17:44 60.6 °F 58.6 °F 30.22 in East 11.0 mph 19.6 mph 93 % 0.00 in
17:49 60.5 °F 58.5 °F 30.22 in NE 11.8 mph 21.0 mph 93 % 0.00 in
17:54 60.5 °F 58.8 °F 30.22 in ENE 10.5 mph 15.0 mph 94 % 0.00 in
17:59 60.4 °F 58.7 °F 30.22 in ENE 10.7 mph 16.1 mph 94 % 0.00 in
18:04 60.3 °F 58.6 °F 30.22 in ENE 10.7 mph 18.4 mph 94 % 0.00 in
18:09 60.1 °F 58.4 °F 30.22 in East 9.9 mph 12.7 mph 94 % 0.00 in
18:14 60.0 °F 58.3 °F 30.22 in East 9.2 mph 18.4 mph 94 % 0.00 in
18:19 59.9 °F 58.2 °F 30.22 in East 9.5 mph 19.6 mph 94 % 0.00 in
18:25 59.9 °F 58.2 °F 30.22 in East 10.9 mph 18.4 mph 94 % 0.00 in
18:30 59.9 °F 58.2 °F 30.22 in East 9.9 mph 17.3 mph 94 % 0.00 in
18:35 59.9 °F 58.2 °F 30.23 in ENE 13.2 mph 26.5 mph 94 % 0.01 in
18:40 59.8 °F 58.1 °F 30.22 in East 8.9 mph 20.7 mph 94 % 0.01 in
18:45 59.8 °F 58.4 °F 30.23 in NNE 8.6 mph 17.3 mph 95 % 0.01 in
18:50 59.9 °F 58.5 °F 30.23 in East 10.7 mph 17.3 mph 95 % 0.01 in
18:55 59.8 °F 58.4 °F 30.23 in ENE 13.2 mph 21.9 mph 95 % 0.01 in
19:00 59.7 °F 58.3 °F 30.23 in East 9.9 mph 16.0 mph 95 % 0.01 in
19:05 59.6 °F 58.2 °F 30.22 in ENE 13.0 mph 18.0 mph 95 % 0.01 in
19:10 59.5 °F 58.1 °F 30.22 in ENE 8.9 mph 15.0 mph 95 % 0.01 in
19:15 59.6 °F 58.5 °F 30.23 in East 10.6 mph 13.8 mph 96 % 0.01 in
19:20 59.4 °F 58.0 °F 30.23 in East 9.4 mph 16.1 mph 95 % 0.01 in
19:26 59.4 °F 58.3 °F 30.23 in ENE 9.0 mph 16.0 mph 96 % 0.01 in
19:31 59.5 °F 58.4 °F 30.23 in ENE 13.0 mph 20.0 mph 96 % 0.00 in
19:36 59.5 °F 58.3 °F 30.23 in ENE 13.0 mph 24.0 mph 96 % 0.00 in
19:41 59.4 °F 57.9 °F 30.23 in ENE 13.0 mph 22.0 mph 95 % 0.00 in
19:46 59.4 °F 57.9 °F 30.23 in ENE 12.0 mph 20.0 mph 95 % 0.00 in
19:51 59.3 °F 57.9 °F 30.23 in ENE 9.0 mph 17.0 mph 95 % 0.00 in
19:56 59.3 °F 57.9 °F 30.23 in ENE 10.0 mph 21.0 mph 95 % 0.00 in
20:01 59.3 °F 57.9 °F 30.23 in ENE 9.0 mph 15.0 mph 95 % 0.01 in
20:06 59.3 °F 57.9 °F 30.23 in NE 10.4 mph 15.0 mph 95 % 0.01 in
20:11 59.3 °F 57.9 °F 30.22 in ENE 10.1 mph 17.3 mph 95 % 0.01 in
20:16 59.4 °F 58.0 °F 30.22 in ENE 7.4 mph 11.5 mph 95 % 0.01 in
20:21 59.3 °F 57.9 °F 30.22 in ENE 11.3 mph 21.0 mph 95 % 0.01 in
20:26 59.4 °F 57.7 °F 30.22 in ENE 11.9 mph 16.1 mph 94 % 0.00 in
20:31 59.4 °F 57.7 °F 30.22 in ENE 12.3 mph 21.9 mph 94 % 0.00 in
20:36 59.4 °F 57.7 °F 30.22 in ENE 8.7 mph 18.4 mph 94 % 0.00 in
20:41 59.4 °F 57.7 °F 30.23 in ENE 10.6 mph 16.1 mph 94 % 0.00 in
20:46 59.5 °F 57.8 °F 30.24 in ENE 9.6 mph 13.8 mph 94 % 0.00 in
20:52 59.5 °F 58.1 °F 30.24 in ENE 7.9 mph 15.0 mph 95 % 0.00 in
20:57 59.5 °F 58.1 °F 30.23 in ENE 8.4 mph 15.0 mph 95 % 0.00 in
21:02 59.4 °F 57.7 °F 30.23 in ENE 10.8 mph 15.0 mph 94 % 0.00 in
21:07 59.5 °F 57.8 °F 30.23 in ENE 11.8 mph 16.1 mph 94 % 0.00 in
21:12 59.5 °F 57.8 °F 30.23 in ENE 14.7 mph 20.7 mph 94 % 0.00 in
21:17 59.5 °F 57.8 °F 30.23 in ENE 9.1 mph 18.4 mph 94 % 0.00 in
21:22 59.6 °F 57.9 °F 30.23 in ENE 11.5 mph 15.0 mph 94 % 0.00 in
21:27 59.6 °F 57.9 °F 30.23 in East 8.2 mph 12.7 mph 94 % 0.00 in
21:32 59.7 °F 58.0 °F 30.23 in ENE 7.0 mph 20.7 mph 94 % 0.00 in
21:37 59.7 °F 58.0 °F 30.23 in East 9.5 mph 15.0 mph 94 % 0.00 in
21:43 59.8 °F 58.1 °F 30.23 in ENE 13.8 mph 16.1 mph 94 % 0.00 in
21:48 59.8 °F 58.1 °F 30.24 in East 11.9 mph 18.4 mph 94 % 0.00 in
21:53 59.9 °F 58.2 °F 30.23 in ENE 12.8 mph 17.3 mph 94 % 0.00 in
22:03 59.7 °F 58.0 °F 30.23 in ENE 10.7 mph 15.0 mph 94 % 0.00 in
22:13 59.7 °F 58.3 °F 30.22 in NE 10.6 mph 20.7 mph 95 % 0.00 in
22:18 59.7 °F 58.0 °F 30.23 in East 12.7 mph 20.0 mph 94 % 0.00 in
22:23 59.6 °F 57.9 °F 30.23 in East 9.9 mph 15.0 mph 94 % 0.00 in
22:28 59.5 °F 57.8 °F 30.23 in ENE 10.5 mph 15.0 mph 94 % 0.00 in
22:34 59.5 °F 57.8 °F 30.23 in ENE 8.7 mph 15.0 mph 94 % 0.00 in
22:39 59.5 °F 58.1 °F 30.23 in ENE 11.2 mph 17.3 mph 95 % 0.00 in
22:44 59.5 °F 57.8 °F 30.23 in East 10.3 mph 17.3 mph 94 % 0.00 in
22:54 59.5 °F 57.8 °F 30.22 in East 10.5 mph 13.8 mph 94 % 0.00 in
22:59 59.4 °F 58.0 °F 30.22 in ENE 9.8 mph 13.8 mph 95 % 0.00 in
23:04 59.4 °F 57.7 °F 30.22 in East 8.2 mph 12.0 mph 94 % 0.00 in
23:09 59.4 °F 57.7 °F 30.22 in ENE 9.4 mph 13.0 mph 94 % 0.00 in
23:14 59.3 °F 57.9 °F 30.22 in East 10.9 mph 17.3 mph 95 % 0.00 in
23:19 59.2 °F 57.8 °F 30.22 in ENE 9.1 mph 16.1 mph 95 % 0.00 in
23:25 59.3 °F 57.9 °F 30.22 in ENE 9.3 mph 15.0 mph 95 % 0.00 in
23:30 59.2 °F 57.8 °F 30.22 in ENE 8.2 mph 13.8 mph 95 % 0.00 in
23:35 59.2 °F 57.8 °F 30.22 in ENE 10.8 mph 17.3 mph 95 % 0.00 in
23:40 59.0 °F 57.6 °F 30.22 in ENE 5.0 mph 6.9 mph 95 % 0.00 in
23:45 58.9 °F 57.2 °F 30.22 in ENE 11.9 mph 16.1 mph 94 % 0.00 in
23:50 58.8 °F 57.4 °F 30.22 in ENE 9.5 mph 15.0 mph 95 % 0.00 in
23:55 58.8 °F 57.4 °F 30.21 in East 10.2 mph 13.8 mph 95 % 0.00 in
Crab Meadow Weather
Compliments of Weather Underground - 2.75 mb

Script developed by  Jim McMurry - jmcmurry@mwt.net Adapted for the template by  Wim van der Kuil - Leuven-Template.eu

Cloud Base: The cloud base is the distance from the sea level to the base of the clouds. It is estimated using the current temperature and humidity to indicate an altitude where the air could be cold enough for clouds to form. There may or may not be clouds at that altitude (or at any altitude)